Regional Weather Roundup
Issued by NWS Charleston, SC

Current Version | Previous Version | Graphics & Text | Print | Product List | Glossary On
Versions: 1 2 3 4 5 6 7 8 9 10 11 12 13 14 15 16 17 18 19 20 21 22 23 24 25 26 27 28 29 30 31 32 33 34 35 36 37 38 39 40 41 42 43 44 45 46 47 48 49 50
000
ASUS42 KCHS 030410
RWRCHS

REGIONAL WEATHER ROUNDUP
NATIONAL WEATHER SERVICE CHARLESTON SC
1200 AM EDT WED SEP 03 2014

NOTE: "FAIR" INDICATES FEW OR NO CLOUDS BELOW 12,000 FEET WITH NO
SIGNIFICANT WEATHER AND/OR OBSTRUCTIONS TO VISIBILITY.

NOT ALL STATIONS ARE QUALITY CONTROLLED BY THE NATIONAL
WEATHER SERVICE. USE DATA WITH CAUTION...ESPECIALLY
DEWPOINT OBSERVATIONS.

SCZ027-030-031-034>040-042>050-030500-
...SOUTH CAROLINA...

CITY           SKY/WX    TMP DP  RH WIND       PRES   REMARKS
N CHARLESTON   PTCLDY    80  75  84 W5        30.05R
WATERFRONT PRK   N/A     82 N/A N/A S8          N/A
FORT JOHNSON   NOT AVBL
MOUNT PLEASANT FAIR      81  75  83 SW5       30.05R
JOHNS ISLAND   CLEAR     82  79  89 CALM      30.05R HX  93
PINOPOLIS        N/A     81  73  78 SW3       29.98R
MONCKS CORNER    N/A     75  75 100 CALM      30.05R
SUMMERVILLE    FAIR      73  73 100 CALM      30.06R
BEAUFORT MCAS  MOCLDY    76  74  93 MISG      30.06R
BEAUFORT ARPT  FAIR      77  77 100 W5        30.05R
HILTON HEAD IS MOCLDY    75  75 100 CALM      30.06S
GEORGETOWN     NOT AVBL
WALTERBORO     MOCLDY    73 N/A N/A CALM      30.07R
ORANGEBURG     CLOUDY    75  71  87 NW3       30.07R
BARNWELL       FAIR      73  72  94 CALM      30.07R
AIKEN          FAIR      72  72 100 CALM      30.10S
MANNING        FAIR      77  77 100 CALM      30.06S
KINGSTREE      NOT AVBL
COLUMBIA       MOCLDY    75  71  87 SW5       30.05R
SUMTER         CLOUDY    75  71  89 SW5       30.05R
FLORENCE       MOCLDY    77  70  79 SW6       30.04R
MYRTLE BEACH   MOCLDY    82  73  74 S6        30.05S
N MYRTLE BEACH MOCLDY    83  75  77 SW13      30.03S HX  90

$$

GAZ063-065-086>088-099>101-113>116-118-119-134-136>141-150-030500-
...GEORGIA...

CITY           SKY/WX    TMP DP  RH WIND       PRES   REMARKS
SAVANNAH ARPT  MOCLDY    76  73  91 W3        30.06R
HUNTER AAF     MOCLDY    75  75 100 CALM      30.04R
FORT STEWART   MOCLDY    74  72  93 CALM      30.05R
STATESBORO     NOT AVBL
SYLVANIA       CLOUDY    71  70  98 CALM      30.07S
CLAXTON        FAIR     N/A N/A N/A CALM      30.07S
THOMSON        CLOUDY    74  74 100 CALM      30.09F
AUGUSTA-BUSH   MOCLDY    70  70 100 CALM      30.05S FOG
AUGUSTA-DANIEL MOCLDY    75  72  90 SE5       30.07S
SWAINSBORO     FAIR      75  75 100 CALM      30.07S
VIDALIA        LGT RAIN  73  72  94 CALM      30.07R
ALMA           CLOUDY    74  72  93 S3        30.05F
WAYCROSS       CLOUDY    77  76  96 CALM      30.06F
JESUP            N/A     77  73  88 NW3       30.08R
BRUNSWICK      CLOUDY    75  72  88 CALM      30.06S
SAINT SIMONS   MOCLDY    76  76 100 CALM      30.05S

$$

SCZ027-028-034-036>038-045-046-048>050-GAZ119-141-030500-
...LAKE AND SUPPLEMENTAL COASTAL OBSERVATIONS...

STATION/POSITION TIME  TEMP    WIND        PRES    WAVE   SWELL
                       AIR SEA DIR/SP/G            HT/PER HT/PER/DIR
                 (UTC) (F)     (DEG/KT/KT) (MB)    (FT/S) (FT/S/D)
UPR LAKE MARION  NOT AVBL
WINYAH BAY       0300   81     220/  4     1016.0S
LAKE MURRAY      0300   78     210/  9/ 12 1017.3R
ACE BASIN NERRS  0300   76        CALM     1017.0S
FORT PULASKI     0400   79     260/  2/  2 1018.0R
SAPELO ISLAND    0300   78        CALM     1018.0R

$$

ANZ835-935-AMZ111-154-330-350-352-354-374-450-454-472-030500-
...C-MAN AND BUOY OBSERVATIONS...

STATION/POSITION TIME  TEMP    WIND        PRES    WAVE   SWELL
                       AIR SEA DIR/SP/G            HT/PER HT/PER/DIR
                 (UTC) (F)     (DEG/KT/KT) (MB)    (FT/S) (FT/S/D)
FOLLY BEACH CMAN 0300   82     190/ 13/ 15 1017.8R
BUOY 41004       0400   83 84  200/ 12/ 14 1017.0R   3/ 8   2/ 8
BUOY 41008       0400   83 85  190/ 12/ 14 1017.5R   2/10   2/200/10
5E ST. MARYS GA  0400      84                N/A     3/10   2/ 70/11
FRYING PAN BUOY  NOT AVBL
BUOY 41025       0400   81     230/ 17/ 19 1016.7R   4/ 5   2/120/ 9
CAPE LOOKOUT NC  0300   81     220/ 10/ 14 1016.9R
BUOY 41002       0348   81 83  200/ 12/ 14 1019.7S   3/11   3/ 90/11
BUOY 41010       0400   83 84  150/ 10/ 12 1017.9F   4/11   3/ 40/11
BUOY 41012       NOT AVBL
ST AUGUSTINE FL  0400   81     200/  5/  6 1018.2R
CAPERS NEARSHORE 0300   82     200/ 14/ 16   N/A
FRIPP NEARSHORE  NOT AVBL


$$



USA.gov is the U.S. government's official web portal to all federal, state and local government web resources and services.